Location: Austin
(30.3000°N, 97.7500°W)
Time: 07:16:35
(UTC-05:00)

Cosmos 1933 - Pass Details

Date: 16 June 2025
Orbit: 517 x 522 km, 82.5° (Epoch: 07 July)

Event Time Altitude Azimuth Distance (km) Brightness Sun altitude
Rises 05:52:39 0° 350° (N) 2,641 7.1 -7.6°
Reaches altitude 10° 05:54:48 10° 347° (NNW) 1,751 6.2 -7.2°
Maximum altitude 05:58:36 63° 266° (W) 580 3.2 -6.5°
Drops below altitude 10° 06:02:23 10° 185° (S) 1,744 5.5 -5.8°
Sets 06:04:31 0° 182° (S) 2,628 6.5 -5.4°
